Flag for U.S.A. Weather past 2 weeks in Norfolk, Virginia, U.S.A.

73 °F

Passing clouds.

Feels Like: 77 °F
Forecast: 57 / 75 °F
Wind: 9 mph from Northeast

Location: Norfolk Naval Air Station

Current Time: Oct 7, 2015 at 3:40:42 PM

Latest Report: Oct 7, 2015 at 2:59 PM

Visibility: 10 mi

Pressure: 30.03 "Hg

Humidity: 57%

Dew point: 57 °F

Location of NorfolkLocation

Historic Weather in Norfolk — Graph


Norfolk temperature yesterday

Maximum temperature yesterday: 70 °F (at 1:59 PM)
Minimum temperature yesterday: 58 °F (at 11:59 PM)
Average temperature yesterday: 65 °F

Past Weeks' High & Low Weather Summary

High84 °F (Sep 29, 1:59 PM)94% (Sep 30, 5:59 AM)30.26 "Hg (Sep 30, 5:59 AM)
Low56 °F (Oct 7, 2:59 AM)53% (Oct 7, 1:59 PM)29.74 "Hg (Sep 30, 3:59 AM)
Average71 °F81%30.03 "Hg
* Reported Sep 22 1:59 PM — Oct 7 1:59 PM, Norfolk, Weather by CustomWeather, © 2015

Note: Actual official high and low records may vary slightly from our data, if they occured in-between our weather recording intervals... More about our weather records


Norfolk weather history for previous 24 hours

Time TempWeatherWind HumidityBarometerVisibility
1:59 PM
Wed, Oct 7
74 °FPassing clouds.9 mph53%30.05 "Hg10 mi
12:59 PM73 °FScattered clouds.8 mph62%30.07 "Hg10 mi
11:59 AM73 °FScattered clouds.10 mph59%30.07 "Hg10 mi
10:59 AM70 °FScattered clouds.9 mph76%30.07 "Hg10 mi
9:59 AM69 °FScattered clouds.5 mph73%30.05 "Hg10 mi
8:59 AM66 °FScattered clouds.5 mph75%30.04 "Hg10 mi
7:59 AM63 °FPassing clouds.6 mph81%30.02 "Hg10 mi
6:59 AM60 °FPassing clouds.6 mph80%30.00 "Hg10 mi
5:59 AM60 °FPassing clouds.7 mph83%30.00 "Hg10 mi
4:59 AM59 °FPassing clouds.6 mph84%29.99 "Hg10 mi
3:59 AM58 °FPassing clouds.No wind90%29.98 "Hg7 mi
2:59 AM56 °FPassing clouds.No wind93%29.99 "Hg9 mi
1:59 AM57 °FClear.No wind93%29.98 "Hg9 mi
12:59 AM57 °FPassing clouds.No wind90%29.99 "Hg10 mi
11:59 PM
Tue, Oct 6
58 °FPassing clouds.No wind90%30.00 "Hg10 mi
10:59 PM59 °FPassing clouds.No wind87%30.00 "Hg10 mi
9:59 PM63 °FPassing clouds.3 mph78%30.00 "Hg10 mi
8:59 PM64 °FPassing clouds.5 mph70%30.00 "Hg10 mi
7:59 PM65 °FPassing clouds.7 mph63%30.00 "Hg10 mi
6:59 PM64 °FScattered clouds.8 mph68%30.01 "Hg10 mi
5:59 PM67 °FScattered clouds.8 mph63%30.01 "Hg10 mi
4:59 PM68 °FScattered clouds.12 mph61%30.00 "Hg10 mi
3:59 PM69 °FScattered clouds.13 mph59%30.00 "Hg10 mi
Weather by CustomWeather, © 2015

See weather overviewHow to use our weather pages